DECAYED

FENGYUN 1C DEB, 31614 (Decayed)

Orbit data source: Space-Track

FENGYUN 1C DEB, 31614 was space debris in SSO originally from a launch on Mon, 10 May 1999 UTC launched from the Taiyaun Space Center, China (TSC). Fengyun 1C debris stems from the Chinese weather satellite Fengyun-1C, which was intentionally destroyed by a Chinese anti-satellite missile in 2007. This event dramatically increased the amount of space debris, with thousands of trackable fragments posing hazards to satellites and human spaceflight. The Fengyun 1C debris cloud has become a focal point in discussions about space sustainability and the need for international regulations to prevent the creation of new debris.

Not visible in the next 10 days
Identifier
31614, 1999-025BZU
Orbit
Decayed
Country
Flag of CNCN / PRC
Related business
Manufacturer
Unknown
Mission
Decayed spacecraft
Bus & Motor
Unknown
Mass
Unknown
Launch date (UTC)
1999-05-10 (27 years ago)
Launch vehicle
Unknown
Launch site
Taiyaun Space Center, China (TSC)
Object type
Payload
Rocket body
Debris
Shape & HBR
Unknown shape, 0.1 m
Radar Cross Section
Small (<0.1 m²)

Expand to show TLE details & history
Last TLE update: 4 months ago

TLE from 4 months ago
0 FENGYUN 1C DEB
1 31614U 99025BZU 26083.52469124  .00624584  00000-0  13628-1 0  9992
2 31614  98.9543  12.1480 0013555  88.0634 272.2160 15.41711079979695
Epoch: 2026-03-24T12:35Z
TLE epoch observation values (Epoch: 2026-03-24T12:35:33.323Z)
Latitude
-0.00003°
Longitude
1.25806°
Altitude
443.785 km
Speed
7.646 km/s
True Right ascension
00h 48m 35s
True Declination
0° 00' 00"
Sunlit
Object was in daylight at epoch
Visualization orbit readout
Latitude
Unknown
Longitude
Unknown
Altitude
Unknown
Speed
Unknown
Apparent Right ascension
Unknown
Apparent Declination
Unknown
Sunlit
N/A
Visualization observer readout
Local Sidereal Time
11:04:41
Azimuth
Unknown
Elevation
Unknown
Doppler factor
Unknown
Orbital elements
Apogee altitude
447.309 km
Perigee altitude
428.83 km
Semi-major axis
6,816.207 km
Eccentricity
0.00136
Inclination
98.9543°
RAAN
12.148°
Arg. of periapsis
88.0634°
True anomaly
272.06078°
Mean anomaly
272.216°
Eccentric anomaly
272.13839°
Mean motion
3.85682 °/min
Orbital period
93.34 mins
BSTAR
0.013628
Loading maneuver chart data...
Computing Atmospheric mass density...

Documentation

Showing up to 5 results
|